| time (UTC) | temp C | wind direction | speed KPH | gust KPH | rain 1hr cm | rain 24hr cm | rain mn cm | humidity % | barometer mb |
| 20260507085629 | 6 | 15 | 1.6 | 3.2 | 0.00 | 0.99 | 0.03 | 85 | 1015.0 |
| 20260507085128 | 5 | 15 | 1.6 | 8.0 | 0.00 | 0.99 | 0.03 | 85 | 1015.0 |
| 20260507084129 | 5 | 14 | 4.8 | 8.0 | 0.00 | 1.04 | 0.03 | 88 | 1014.8 |
| 20260507083628 | 6 | 14 | 0.0 | 3.2 | 0.00 | 1.04 | 0.03 | 89 | 1014.9 |
| 20260507082628 | 6 | 14 | 1.6 | 4.8 | 0.00 | 1.09 | 0.03 | 88 | 1014.8 |
| 20260507082129 | 6 | 15 | 4.8 | 9.7 | 0.00 | 1.09 | 0.03 | 88 | 1014.8 |
| 20260507081628 | 5 | 13 | 4.8 | 11.3 | 0.00 | 1.09 | 0.03 | 88 | 1014.7 |
| 20260507080629 | 5 | 16 | 3.2 | 8.0 | 0.00 | 1.14 | 0.03 | 84 | 1014.7 |
| 20260507080130 | 4 | 16 | 3.2 | 8.0 | 0.00 | 1.14 | 0.03 | 84 | 1014.7 |
| 20260507075128 | 3 | 15 | 9.7 | 11.3 | 0.00 | 1.27 | 0.03 | 89 | 1014.6 |
| 20260507074629 | 3 | 15 | 6.4 | 9.7 | 0.00 | 1.30 | 0.03 | 89 | 1014.5 |
| 20260507074128 | 4 | 15 | 6.4 | 8.0 | 0.00 | 1.35 | 0.03 | 89 | 1014.5 |
| 20260507073628 | 5 | 15 | 3.2 | 4.8 | 0.00 | 1.37 | 0.03 | 89 | 1014.5 |
| 20260507073128 | 4 | 15 | 8.0 | 11.3 | 0.00 | 1.40 | 0.03 | 90 | 1014.4 |
| 20260507072629 | 5 | 14 | 1.6 | 8.0 | 0.00 | 1.42 | 0.03 | 89 | 1014.4 |
| 20260507071628 | 5 | 15 | 1.6 | 4.8 | 0.00 | 1.45 | 0.03 | 89 | 1014.3 |
| 20260507071128 | 5 | 15 | 1.6 | 4.8 | 0.00 | 1.45 | 0.03 | 88 | 1014.3 |
| 20260507070628 | 6 | 15 | 3.2 | 8.0 | 0.00 | 1.50 | 0.03 | 84 | 1014.2 |
| 20260507070129 | 6 | 14 | 3.2 | 4.8 | 0.00 | 1.57 | 0.03 | 81 | 1014.2 |
| 20260507065629 | 7 | 14 | 1.6 | 8.0 | 0.00 | 1.63 | 0.03 | 78 | 1014.2 |
| 20260507065128 | 7 | 18 | 3.2 | 4.8 | 0.00 | 1.68 | 0.03 | 74 | 1014.0 |
| 20260507064628 | 7 | 17 | 0.0 | 3.2 | 0.00 | 1.80 | 0.03 | 80 | 1014.2 |
| 20260507063629 | 7 | 17 | 1.6 | 4.8 | 0.00 | 1.96 | 0.03 | 80 | 1014.3 |
| 20260507062628 | 6 | 20 | 3.2 | 4.8 | 0.00 | 2.11 | 0.03 | 70 | 1014.3 |
| 20260507062129 | 6 | 18 | 6.4 | 11.3 | 0.00 | 2.18 | 0.03 | 63 | 1014.3 |
| 20260507061629 | 6 | 21 | 1.6 | 4.8 | 0.00 | 2.24 | 0.03 | 69 | 1014.3 |
| 20260507061128 | 6 | 20 | 3.2 | 4.8 | 0.00 | 2.26 | 0.03 | 64 | 1014.4 |
| 20260507060628 | 6 | 19 | 3.2 | 8.0 | 0.00 | 2.31 | 0.03 | 61 | 1014.5 |
| 20260507054628 | 5 | 18 | 3.2 | 4.8 | 0.00 | 2.41 | 0.03 | 66 | 1014.3 |
| 20260507053628 | 5 | 17 | 4.8 | 12.9 | 0.00 | 2.49 | 0.03 | 69 | 1014.2 |
| 20260507053128 | 5 | 15 | 4.8 | 9.7 | 0.00 | 2.49 | 0.03 | 68 | 1014.1 |
| 20260507052629 | 5 | 12 | 4.8 | 9.7 | 0.00 | 2.49 | 0.03 | 69 | 1014.0 |
| 20260507052128 | 5 | 21 | 3.2 | 4.8 | 0.00 | 2.51 | 0.03 | 69 | 1014.0 |
| 20260507050628 | 4 | 13 | 3.2 | 4.8 | 0.00 | 2.57 | 0.03 | 74 | 1013.8 |
| 20260507050128 | 3 | 12 | 3.2 | 8.0 | 0.00 | 2.57 | 0.03 | 78 | 1013.8 |
| 20260507045628 | 3 | 9 | 4.8 | 9.7 | 0.00 | 2.57 | 0.03 | 80 | 1013.7 |
| 20260507045128 | 3 | 10 | 6.4 | 14.5 | 0.00 | 2.57 | 0.03 | 84 | 1013.7 |
| 20260507044628 | 3 | 19 | 4.8 | 14.5 | 0.00 | 2.57 | 0.03 | 85 | 1013.6 |
| 20260507044128 | 3 | 13 | 8.0 | 16.1 | 0.00 | 2.57 | 0.03 | 90 | 1013.5 |
| 20260507043628 | 3 | 15 | 4.8 | 16.1 | 0.00 | 2.57 | 0.03 | 90 | 1013.4 |
| 20260507042128 | 2 | 17 | 4.8 | 11.3 | 0.00 | 2.57 | 0.03 | 90 | 1013.3 |
| 20260507041628 | 2 | 21 | 4.8 | 9.7 | 0.00 | 2.57 | 0.03 | 90 | 1013.3 |
| 20260507041128 | 2 | 22 | 4.8 | 11.3 | 0.00 | 2.57 | 0.03 | 90 | 1013.3 |
| 20260507040628 | 2 | 14 | 4.8 | 12.9 | 0.00 | 2.57 | 0.03 | 90 | 1013.3 |
| 20260507040128 | 2 | 17 | 4.8 | 8.0 | 0.00 | 2.57 | 0.03 | 90 | 1013.3 |
| 20260507035627 | 2 | 24 | 4.8 | 9.7 | 0.00 | 2.57 | 0.03 | 90 | 1013.3 |
| 20260507034628 | 2 | 19 | 6.4 | 12.9 | 0.00 | 2.57 | 0.03 | 90 | 1013.3 |
| 20260507034128 | 2 | 16 | 4.8 | 9.7 | 0.00 | 2.57 | 0.03 | 90 | 1013.3 |
| 20260507033628 | 2 | 15 | 4.8 | 9.7 | 0.00 | 2.57 | 0.03 | 89 | 1013.3 |
| 20260507033128 | 2 | 14 | 4.8 | 11.3 | 0.00 | 2.57 | 0.03 | 88 | 1013.3 |
| 20260507032627 | 2 | 13 | 4.8 | 14.5 | 0.00 | 2.57 | 0.03 | 86 | 1013.3 |
| 20260507032128 | 2 | 20 | 6.4 | 16.1 | 0.00 | 2.57 | 0.03 | 84 | 1013.3 |
| 20260507031627 | 2 | 14 | 4.8 | 20.9 | 0.00 | 2.57 | 0.03 | 81 | 1013.3 |
| 20260507031128 | 2 | 24 | 11.3 | 22.5 | 0.00 | 2.57 | 0.03 | 75 | 1013.2 |
| 20260507030628 | 3 | 24 | 14.5 | 22.5 | 0.00 | 2.57 | 0.03 | 73 | 1013.1 |
| 20260507025627 | 2 | 20 | 16.1 | 27.4 | 0.00 | 2.57 | 0.03 | 78 | 1013.1 |
| 20260507025128 | 2 | 21 | 11.3 | 24.1 | 0.00 | 2.57 | 0.03 | 82 | 1013.2 |
| 20260507024628 | 2 | 16 | 16.1 | 29.0 | 0.00 | 2.57 | 0.03 | 83 | 1013.2 |
| 20260507024128 | 2 | 18 | 9.7 | 19.3 | 0.00 | 2.57 | 0.03 | 86 | 1013.3 |
| 20260507023628 | 2 | 17 | 9.7 | 20.9 | 0.00 | 2.57 | 0.03 | 86 | 1013.2 |
| 20260507023128 | 2 | 10 | 9.7 | 19.3 | 0.00 | 2.57 | 0.03 | 87 | 1013.4 |
| 20260507022628 | 2 | 18 | 8.0 | 12.9 | 0.00 | 2.57 | 0.03 | 90 | 1013.4 |
| 20260507021628 | 2 | 14 | 8.0 | 11.3 | 0.03 | 2.57 | 0.03 | 84 | 1013.6 |
| 20260507021128 | 2 | 15 | 8.0 | 22.5 | 0.03 | 2.57 | 0.03 | 83 | 1013.6 |
| 20260507020128 | 1 | 16 | 8.0 | 19.3 | 0.03 | 2.57 | 0.03 | 83 | 1013.6 |
| 20260507015628 | 1 | 15 | 8.0 | 20.9 | 0.03 | 2.57 | 0.03 | 84 | 1013.5 |
| 20260507015128 | 1 | 14 | 8.0 | 14.5 | 0.03 | 2.57 | 0.03 | 84 | 1013.5 |
| 20260507014628 | 1 | 15 | 6.4 | 11.3 | 0.03 | 2.57 | 0.03 | 84 | 1013.5 |
| 20260507014128 | 1 | 16 | 8.0 | 11.3 | 0.03 | 2.57 | 0.03 | 84 | 1013.6 |
| 20260507013627 | 1 | 14 | 6.4 | 11.3 | 0.03 | 2.57 | 0.03 | 84 | 1013.5 |
| 20260507013127 | 1 | 11 | 8.0 | 12.9 | 0.03 | 2.57 | 0.03 | 84 | 1013.5 |
| 20260507012128 | 1 | 19 | 8.0 | 11.3 | 0.03 | 2.57 | 0.03 | 84 | 1013.5 |
| 20260507011628 | 1 | 16 | 4.8 | 14.5 | 0.00 | 2.54 | 0.00 | 85 | 1013.5 |
| 20260507011128 | 1 | 17 | 6.4 | 14.5 | 0.00 | 2.54 | 0.00 | 85 | 1013.5 |
| 20260507010628 | 1 | 13 | 4.8 | 12.9 | 0.00 | 2.54 | 0.00 | 84 | 1013.5 |
| 20260507010128 | 1 | 12 | 4.8 | 11.3 | 0.00 | 2.54 | 0.00 | 84 | 1013.5 |
| 20260507005628 | 2 | 12 | 4.8 | 11.3 | 0.00 | 2.54 | 0.00 | 85 | 1013.4 |
| 20260507005128 | 2 | 10 | 4.8 | 11.3 | 0.00 | 2.54 | 0.00 | 85 | 1013.5 |
| 20260507004628 | 2 | 11 | 3.2 | 8.0 | 0.00 | 2.54 | 0.00 | 84 | 1013.5 |
| 20260507004128 | 2 | 10 | 4.8 | 9.7 | 0.00 | 2.54 | 0.00 | 84 | 1013.4 |
| 20260507003128 | 2 | 15 | 4.8 | 11.3 | 0.00 | 2.54 | 0.00 | 85 | 1013.3 |
| 20260507002128 | 2 | 18 | 3.2 | 8.0 | 0.00 | 2.54 | 0.00 | 84 | 1013.3 |
| 20260507001627 | 2 | 11 | 3.2 | 11.3 | 0.00 | 2.54 | 0.00 | 84 | 1013.3 |
| 20260507000628 | 3 | 9 | 3.2 | 8.0 | 0.00 | 2.54 | 0.00 | 84 | 1013.3 |
| 20260507000128 | 3 | 16 | 4.8 | 9.7 | 0.00 | 2.54 | 0.00 | 84 | 1013.4 |
| 20260506235128 | 3 | 15 | 3.2 | 14.5 | 0.00 | 2.54 | 0.00 | 84 | 1013.4 |
| 20260506234628 | 3 | 12 | 4.8 | 8.0 | 0.00 | 2.54 | 0.00 | 84 | 1013.3 |
| 20260506233627 | 3 | 14 | 3.2 | 9.7 | 0.00 | 2.54 | 0.00 | 84 | 1013.3 |
| 20260506233127 | 3 | 13 | 4.8 | 12.9 | 0.00 | 2.54 | 0.00 | 84 | 1013.4 |
| 20260506232127 | 3 | 12 | 4.8 | 11.3 | 0.00 | 2.54 | 0.00 | 84 | 1013.4 |
| 20260506231628 | 3 | 13 | 4.8 | 11.3 | 0.00 | 2.54 | 0.00 | 84 | 1013.4 |
| 20260506231128 | 3 | 16 | 4.8 | 12.9 | 0.00 | 2.54 | 0.00 | 84 | 1013.3 |
| 20260506230628 | 3 | 10 | 6.4 | 27.4 | 0.00 | 2.54 | 0.00 | 84 | 1013.4 |
| 20260506230127 | 3 | 6 | 8.0 | 19.3 | 0.00 | 2.54 | 0.00 | 84 | 1013.4 |
| 20260506225627 | 3 | 13 | 8.0 | 12.9 | 0.00 | 2.54 | 0.00 | 84 | 1013.5 |
| 20260506225128 | 3 | 12 | 8.0 | 14.5 | 0.00 | 2.54 | 0.00 | 84 | 1013.4 |
| 20260506224127 | 4 | 11 | 11.3 | 19.3 | 0.00 | 2.54 | 0.00 | 84 | 1013.4 |
| 20260506223627 | 4 | 13 | 9.7 | 20.9 | 0.00 | 2.54 | 0.00 | 84 | 1013.5 |
| 20260506223127 | 4 | 12 | 9.7 | 19.3 | 0.00 | 2.54 | 0.00 | 84 | 1013.5 |
| 20260506222128 | 3 | 14 | 11.3 | 20.9 | 0.00 | 2.54 | 0.00 | 84 | 1013.4 |
| 20260506221628 | 3 | 11 | 12.9 | 19.3 | 0.00 | 2.54 | 0.00 | 84 | 1013.5 |
| 20260506221128 | 3 | 10 | 11.3 | 19.3 | 0.00 | 2.54 | 0.00 | 84 | 1013.5 |
| 20260506220627 | 3 | 17 | 8.0 | 20.9 | 0.00 | 2.54 | 0.00 | 84 | 1013.5 |
| 20260506220127 | 3 | 20 | 11.3 | 19.3 | 0.00 | 2.54 | 0.00 | 84 | 1013.4 |
| 20260506215627 | 3 | 10 | 11.3 | 20.9 | 0.00 | 2.54 | 2.54 | 84 | 1013.4 |
| 20260506215128 | 3 | 12 | 14.5 | 24.1 | 0.00 | 2.54 | 2.54 | 84 | 1013.4 |
| 20260506214627 | 3 | 11 | 9.7 | 22.5 | 0.00 | 2.54 | 2.54 | 84 | 1013.4 |
| 20260506214128 | 3 | 11 | 12.9 | 22.5 | 0.00 | 2.54 | 2.54 | 84 | 1013.4 |
| 20260506213628 | 3 | 14 | 12.9 | 20.9 | 0.00 | 2.54 | 2.54 | 84 | 1013.4 |
| 20260506213127 | 3 | 15 | 9.7 | 19.3 | 0.00 | 2.54 | 2.54 | 84 | 1013.5 |
| 20260506212128 | 3 | 13 | 11.3 | 20.9 | 0.00 | 2.54 | 2.54 | 84 | 1013.5 |
| 20260506211628 | 3 | 11 | 9.7 | 19.3 | 0.00 | 2.54 | 2.54 | 84 | 1013.5 |
| 20260506211128 | 3 | 15 | 9.7 | 16.1 | 0.00 | 2.54 | 2.54 | 84 | 1013.5 |
| 20260506210627 | 3 | 14 | 9.7 | 19.3 | 0.00 | 2.54 | 2.54 | 84 | 1013.4 |
| 20260506210127 | 3 | 17 | 11.3 | 19.3 | 0.00 | 2.54 | 2.54 | 84 | 1013.4 |
| 20260506205627 | 3 | 10 | 9.7 | 19.3 | 0.00 | 2.54 | 2.54 | 84 | 1013.5 |
| 20260506205128 | 4 | 14 | 8.0 | 14.5 | 0.00 | 2.54 | 2.54 | 84 | 1013.5 |
| 20260506204627 | 4 | 18 | 4.8 | 12.9 | 0.00 | 2.54 | 2.54 | 84 | 1013.5 |
| 20260506204128 | 4 | 12 | 14.5 | 22.5 | 0.00 | 2.54 | 2.54 | 84 | 1013.5 |
| 20260506203628 | 4 | 9 | 11.3 | 19.3 | 0.00 | 2.54 | 2.54 | 84 | 1013.4 |
| 20260506203128 | 4 | 11 | 11.3 | 16.1 | 0.00 | 2.54 | 2.54 | 84 | 1013.4 |
| 20260506202628 | 4 | 15 | 11.3 | 19.3 | 0.00 | 2.54 | 2.54 | 84 | 1013.5 |
| 20260506202127 | 4 | 14 | 9.7 | 19.3 | 0.00 | 2.54 | 2.54 | 84 | 1013.4 |
| 20260506201628 | 4 | 12 | 11.3 | 19.3 | 0.00 | 2.54 | 2.54 | 84 | 1013.5 |
| 20260506200628 | 4 | 11 | 14.5 | 19.3 | 0.00 | 2.57 | 2.54 | 84 | 1013.3 |
| 20260506200128 | 4 | 14 | 8.0 | 12.9 | 0.00 | 2.57 | 2.54 | 84 | 1013.3 |
| 20260506195628 | 4 | 12 | 6.4 | 12.9 | 0.00 | 2.59 | 2.54 | 84 | 1013.4 |
| 20260506195128 | 4 | 12 | 8.0 | 12.9 | 0.00 | 2.59 | 2.54 | 84 | 1013.3 |
| 20260506194627 | 4 | 11 | 11.3 | 20.9 | 0.00 | 2.59 | 2.54 | 84 | 1013.3 |
| 20260506194128 | 4 | 8 | 8.0 | 12.9 | 0.00 | 2.59 | 2.54 | 84 | 1013.2 |
| 20260506193628 | 4 | 11 | 8.0 | 12.9 | 0.00 | 2.59 | 2.54 | 84 | 1013.1 |
| 20260506192627 | 4 | 13 | 4.8 | 9.7 | 0.00 | 2.59 | 2.54 | 84 | 1013.0 |
| 20260506192127 | 4 | 11 | 4.8 | 8.0 | 0.00 | 2.59 | 2.54 | 84 | 1013.0 |
| 20260506191628 | 4 | 9 | 4.8 | 9.7 | 0.00 | 2.59 | 2.54 | 84 | 1012.9 |
| 20260506191127 | 4 | 10 | 6.4 | 9.7 | 0.00 | 2.59 | 2.54 | 84 | 1012.9 |
| 20260506190628 | 3 | 16 | 4.8 | 12.9 | 0.00 | 2.59 | 2.54 | 84 | 1012.8 |
| 20260506190128 | 4 | 15 | 9.7 | 19.3 | 0.00 | 2.59 | 2.54 | 84 | 1012.8 |
| 20260506185628 | 3 | 11 | 4.8 | 11.3 | 0.00 | 2.59 | 2.54 | 84 | 1012.8 |
| 20260506184628 | 3 | 14 | 3.2 | 4.8 | 0.00 | 2.62 | 2.54 | 84 | 1012.7 |
| 20260506182627 | 4 | 14 | 1.6 | 4.8 | 0.00 | 2.62 | 2.54 | 84 | 1012.6 |
| 20260506182127 | 4 | 15 | 3.2 | 8.0 | 0.00 | 2.62 | 2.54 | 84 | 1012.5 |
| 20260506181627 | 4 | 12 | 4.8 | 11.3 | 0.00 | 2.62 | 2.54 | 84 | 1012.4 |
| 20260506181127 | 4 | 9 | 3.2 | 4.8 | 0.00 | 2.62 | 2.54 | 84 | 1012.3 |
| 20260506180627 | 4 | 13 | 4.8 | 9.7 | 0.00 | 2.64 | 2.54 | 84 | 1012.4 |
| 20260506180128 | 4 | 9 | 4.8 | 8.0 | 0.00 | 2.67 | 2.54 | 84 | 1012.3 |
| 20260506175627 | 4 | 14 | 4.8 | 9.7 | 0.00 | 2.69 | 2.54 | 84 | 1012.4 |
| 20260506175128 | 5 | 9 | 4.8 | 9.7 | 0.00 | 2.69 | 2.54 | 84 | 1012.3 |
| 20260506174627 | 4 | 16 | 3.2 | 4.8 | 0.00 | 2.69 | 2.54 | 84 | 1012.3 |
| 20260506174127 | 4 | 12 | 3.2 | 11.3 | 0.00 | 2.69 | 2.54 | 84 | 1012.3 |
| 20260506173627 | 4 | 13 | 3.2 | 8.0 | 0.00 | 2.69 | 2.54 | 84 | 1012.3 |
| 20260506173127 | 4 | 11 | 4.8 | 9.7 | 0.00 | 2.69 | 2.54 | 84 | 1012.3 |
| 20260506172627 | 4 | 13 | 4.8 | 11.3 | 0.00 | 2.69 | 2.54 | 84 | 1012.1 |
| 20260506172128 | 4 | 15 | 3.2 | 11.3 | 0.00 | 2.72 | 2.54 | 84 | 1012.1 |
| 20260506171628 | 5 | 14 | 9.7 | 14.5 | 0.00 | 2.74 | 2.54 | 84 | 1012.1 |
| 20260506171128 | 5 | 10 | 4.8 | 11.3 | 0.00 | 2.77 | 2.54 | 84 | 1011.9 |
| 20260506170627 | 5 | 17 | 6.4 | 16.1 | 0.00 | 2.79 | 2.54 | 84 | 1011.9 |
| 20260506165627 | 5 | 7 | 3.2 | 14.5 | 0.00 | 2.84 | 2.54 | 84 | 1011.8 |
| 20260506165127 | 5 | 12 | 4.8 | 12.9 | 0.00 | 2.84 | 2.54 | 84 | 1011.8 |
| 20260506164627 | 5 | 14 | 3.2 | 11.3 | 0.03 | 2.87 | 2.54 | 84 | 1011.8 |
| 20260506164128 | 5 | 10 | 3.2 | 11.3 | 0.03 | 2.87 | 2.54 | 84 | 1011.8 |
| 20260506163127 | 5 | 8 | 9.7 | 19.3 | 0.03 | 2.95 | 2.54 | 84 | 1011.8 |
| 20260506162627 | 5 | 14 | 1.6 | 11.3 | 0.03 | 2.97 | 2.54 | 84 | 1011.8 |
| 20260506162127 | 5 | 14 | 4.8 | 19.3 | 0.03 | 2.97 | 2.54 | 84 | 1011.8 |
| 20260506161627 | 5 | 10 | 8.0 | 19.3 | 0.03 | 2.97 | 2.54 | 84 | 1011.9 |
| 20260506161127 | 5 | 12 | 4.8 | 14.5 | 0.03 | 2.97 | 2.54 | 84 | 1011.8 |
| 20260506160627 | 5 | 14 | 8.0 | 19.3 | 0.03 | 2.97 | 2.54 | 84 | 1011.9 |
| 20260506155127 | 5 | 13 | 4.8 | 14.5 | 0.03 | 3.00 | 2.54 | 84 | 1011.9 |
| 20260506154627 | 4 | 14 | 3.2 | 8.0 | 0.00 | 2.97 | 2.51 | 84 | 1011.8 |
| 20260506153627 | 4 | 11 | 8.0 | 19.3 | 0.00 | 2.97 | 2.51 | 84 | 1011.7 |
| 20260506153127 | 5 | 11 | 8.0 | 16.1 | 0.00 | 2.97 | 2.51 | 84 | 1011.7 |
| 20260506152627 | 5 | 8 | 11.3 | 29.0 | 0.00 | 3.00 | 2.51 | 84 | 1011.7 |
| 20260506152127 | 5 | 9 | 8.0 | 27.4 | 0.00 | 3.00 | 2.51 | 84 | 1011.6 |
| 20260506151627 | 5 | 11 | 12.9 | 32.2 | 0.00 | 3.00 | 2.51 | 84 | 1011.7 |
| 20260506151127 | 5 | 13 | 6.4 | 16.1 | 0.00 | 3.00 | 2.51 | 84 | 1011.7 |
| 20260506150627 | 5 | 13 | 9.7 | 19.3 | 0.00 | 3.02 | 2.51 | 84 | 1011.8 |
| 20260506145627 | 5 | 11 | 14.5 | 24.1 | 0.00 | 3.02 | 2.51 | 84 | 1011.8 |
| 20260506145127 | 4 | 9 | 9.7 | 25.7 | 0.00 | 3.02 | 2.51 | 84 | 1011.8 |
| 20260506144627 | 4 | 10 | 16.1 | 24.1 | 0.00 | 3.05 | 2.51 | 84 | 1011.9 |
| 20260506144129 | 4 | 10 | 9.7 | 19.3 | 0.00 | 3.05 | 2.51 | 84 | 1012.0 |
| 20260506143627 | 4 | 10 | 11.3 | 24.1 | 0.00 | 3.05 | 2.51 | 84 | 1011.9 |
| 20260506142627 | 4 | 15 | 11.3 | 22.5 | 0.03 | 3.05 | 2.51 | 84 | 1011.9 |
| 20260506141627 | 4 | 10 | 12.9 | 25.7 | 0.05 | 3.05 | 2.51 | 84 | 1011.8 |
| 20260506140627 | 4 | 9 | 14.5 | 25.7 | 0.05 | 3.05 | 2.51 | 84 | 1011.8 |
| 20260506135627 | 3 | 10 | 14.5 | 29.0 | 0.10 | 3.05 | 2.51 | 84 | 1011.8 |
| 20260506135127 | 3 | 10 | 14.5 | 35.4 | 0.15 | 3.05 | 2.51 | 84 | 1011.8 |
| 20260506134627 | 3 | 11 | 19.3 | 35.4 | 0.36 | 3.05 | 2.51 | 84 | 1012.0 |
| 20260506134127 | 3 | 11 | 17.7 | 38.6 | 0.43 | 3.05 | 2.51 | 84 | 1011.8 |
| 20260506133127 | 4 | 10 | 20.9 | 38.6 | 0.51 | 3.05 | 2.51 | 84 | 1011.9 |
| 20260506132627 | 3 | 11 | 20.9 | 38.6 | 0.48 | 3.05 | 2.49 | 84 | 1012.0 |
| 20260506132127 | 3 | 11 | 16.1 | 33.8 | 0.51 | 3.05 | 2.49 | 84 | 1012.1 |
| 20260506131627 | 3 | 9 | 16.1 | 35.4 | 0.51 | 3.02 | 2.49 | 84 | 1012.1 |
| 20260506131127 | 3 | 13 | 20.9 | 38.6 | 0.56 | 3.02 | 2.49 | 84 | 1012.1 |
| 20260506130627 | 3 | 8 | 14.5 | 29.0 | 0.56 | 3.00 | 2.46 | 84 | 1012.3 |
| 20260506130127 | 3 | 8 | 20.9 | 33.8 | 0.61 | 3.00 | 2.46 | 84 | 1012.3 |
| 20260506125130 | 3 | 8 | 8.0 | 22.5 | 0.51 | 2.90 | 2.36 | 84 | 1012.6 |
| 20260506124627 | 3 | 11 | 12.9 | 20.9 | 0.38 | 2.72 | 2.16 | 84 | 1012.5 |
| 20260506123627 | 5 | 14 | 16.1 | 25.7 | 0.33 | 2.62 | 2.06 | 84 | 1012.5 |
| 20260506123127 | 5 | 16 | 14.5 | 22.5 | 0.33 | 2.59 | 2.03 | 84 | 1012.4 |
| 20260506122628 | 5 | 10 | 16.1 | 22.5 | 0.33 | 2.59 | 2.03 | 84 | 1012.4 |
| 20260506122127 | 5 | 15 | 9.7 | 19.3 | 0.33 | 2.57 | 1.98 | 84 | 1012.3 |
| 20260506121627 | 5 | 13 | 11.3 | 19.3 | 0.33 | 2.54 | 1.96 | 84 | 1012.3 |
| 20260506121127 | 5 | 12 | 8.0 | 19.3 | 0.28 | 2.51 | 1.93 | 84 | 1012.4 |
| 20260506120627 | 4 | 11 | 8.0 | 12.9 | 0.25 | 2.49 | 1.91 | 84 | 1012.3 |
| 20260506120127 | 4 | 11 | 9.7 | 12.9 | 0.23 | 2.49 | 1.85 | 84 | 1012.4 |
| 20260506115627 | 4 | 11 | 3.2 | 4.8 | 0.20 | 2.49 | 1.83 | 84 | 1012.5 |
| 20260506115127 | 4 | 11 | 3.2 | 4.8 | 0.20 | 2.49 | 1.83 | 84 | 1012.5 |
| 20260506114627 | 4 | 13 | 3.2 | 8.0 | 0.15 | 2.41 | 1.78 | 84 | 1012.5 |
| 20260506114127 | 4 | 11 | 4.8 | 9.7 | 0.10 | 2.39 | 1.75 | 84 | 1012.6 |
| 20260506113627 | 4 | 13 | 4.8 | 11.3 | 0.08 | 2.39 | 1.73 | 84 | 1012.5 |
| 20260506113127 | 5 | 12 | 8.0 | 11.3 | 0.08 | 2.36 | 1.70 | 84 | 1012.6 |
| 20260506112626 | 5 | 10 | 4.8 | 12.9 | 0.08 | 2.36 | 1.70 | 84 | 1012.6 |
| 20260506112127 | 5 | 11 | 3.2 | 8.0 | 0.05 | 2.31 | 1.65 | 84 | 1012.7 |
| 20260506111626 | 4 | 16 | 3.2 | 11.3 | 0.03 | 2.31 | 1.65 | 84 | 1012.8 |
| 20260506111127 | 4 | 14 | 6.4 | 11.3 | 0.03 | 2.31 | 1.65 | 84 | 1012.9 |
| 20260506110627 | 5 | 12 | 6.4 | 11.3 | 0.03 | 2.31 | 1.65 | 84 | 1013.0 |
| 20260506110127 | 5 | 11 | 6.4 | 11.3 | 0.05 | 2.34 | 1.65 | 84 | 1013.1 |
| 20260506105627 | 5 | 15 | 6.4 | 11.3 | 0.05 | 2.36 | 1.65 | 84 | 1013.2 |
| 20260506105126 | 5 | 8 | 8.0 | 16.1 | 0.05 | 2.36 | 1.65 | 84 | 1013.1 |
| 20260506104126 | 5 | 17 | 9.7 | 19.3 | 0.05 | 2.39 | 1.65 | 84 | 1013.2 |
| 20260506103127 | 5 | 16 | 3.2 | 8.0 | 0.05 | 2.39 | 1.63 | 84 | 1013.3 |
| 20260506102626 | 4 | 14 | 11.3 | 19.3 | 0.05 | 2.41 | 1.63 | 84 | 1013.3 |
| 20260506102127 | 4 | 13 | 8.0 | 12.9 | 0.05 | 2.41 | 1.63 | 84 | 1013.3 |
| 20260506101126 | 5 | 12 | 4.8 | 11.3 | 0.05 | 2.44 | 1.63 | 84 | 1013.4 |
| 20260506100627 | 5 | 10 | 4.8 | 11.3 | 0.05 | 2.46 | 1.63 | 84 | 1013.2 |
| 20260506100127 | 5 | 11 | 6.4 | 9.7 | 0.03 | 2.46 | 1.60 | 84 | 1013.3 |
| 20260506095627 | 5 | 9 | 8.0 | 11.3 | 0.00 | 2.44 | 1.57 | 84 | 1013.3 |
| 20260506094627 | 4 | 13 | 9.7 | 16.1 | 0.05 | 2.49 | 1.57 | 84 | 1013.2 |
| 20260506093126 | 4 | 13 | 6.4 | 19.3 | 0.10 | 2.54 | 1.57 | 84 | 1013.2 |
| 20260506092627 | 4 | 15 | 4.8 | 12.9 | 0.13 | 2.54 | 1.57 | 84 | 1013.3 |
| 20260506092126 | 4 | 14 | 6.4 | 14.5 | 0.13 | 2.57 | 1.57 | 84 | 1013.3 |
| 20260506090126 | 4 | 10 | 4.8 | 14.5 | 0.15 | 2.72 | 1.57 | 84 | 1013.1 |